This demonstration page uses our WeatherBlox Daily Observations layout. Learn more.

Left ArrowRight Arrow

41.12389, -100.76542

Hourly Observations for September 1, 2016

Temp ( °F °C ) Dew Point ( °F °C ) Humidity (%) Winds ( mph kmh ) Pressure ( in mb ) Visibility ( mi km ) Precip ( " mm )
12:53 am 00:53 Clear with Mist and Fog 59 15 58 14.4 96 96 ESE 3 6 30.19 1022 4 6 0.00 0.00
1:08 am 01:08 Clear with Mist and Fog 57 14 57 14 100 100 E 5 7 30.18 1022 2 3 0.00 0.00
1:16 am 01:16 Clear with Mist and Fog 57 14 57 14 100 100 ESE 5 7 30.18 1022 1 2 0.00 0.00
1:21 am 01:21 Clear with Mist and Fog 58 14.4 56 13.3 93 93 ESE 5 7 30.18 1022 2 3 0.00 0.00
1:32 am 01:32 Clear with Mist and Fog 58 14.4 56 13.3 93 93 E 6 9 30.18 1022 2 3 0.00 0.00
1:39 am 01:39 Clear with Mist and Fog 58 14.4 57 13.9 97 97 E 5 7 30.18 1022 3 4 0.00 0.00
1:53 am 01:53 Partly Cloudy with Mist and Fog 57 13.9 56 13.3 96 96 E 6 9 30.19 1022 3 4 0.00 0.00
2:00 am 02:00 Partly Cloudy with Mist and Fog 58 14.4 57 13.9 97 97 E 6 9 30.18 1022 4 6 0.00 0.00
2:13 am 02:13 Mostly Cloudy with Mist and Fog 58 14.4 57 13.9 97 97 E 5 7 30.18 1022 2 3 0.00 0.00
2:16 am 02:16 Mostly Cloudy with Fog 59 15 57 14 94 94 E 3 6 30.18 1022 1 1 0.00 0.00
2:24 am 02:24 Mostly Cloudy with Fog 60 15.6 59 15 96 96 E 3 6 30.18 1022 5 8 0.00 0.00
2:53 am 02:53 Mostly Cloudy with Fog 59 15 58 14.4 96 96 E 3 6 30.18 1022 0 0 0.00 0.00
3:46 am 03:46 Mostly Cloudy with Fog 57 14 55 13 94 94 E 5 7 30.18 1022 1 1 0.00 0.00
3:51 am 03:51 Mostly Cloudy with Mist and Fog 57 14 55 13 94 94 E 5 7 30.18 1022 1 2 0.00 0.00
3:53 am 03:53 Partly Cloudy with Mist and Fog 57 13.9 55 12.8 93 93 ESE 3 6 30.18 1022 1 2 0.00 0.00
4:10 am 04:10 Clear with Mist and Fog 56 13.3 54 12.2 93 93 ESE 7 11 30.18 1022 2 3 0.00 0.00
4:22 am 04:22 Mostly Clear with Mist and Fog 55 13 55 13 100 100 ESE 6 9 30.18 1022 4 6 0.00 0.00
4:53 am 04:53 Mostly Cloudy with Mist and Fog 55 12.8 54 12.2 96 96 ESE 6 9 30.18 1022 5 8 0.00 0.00
5:21 am 05:21 Partly Cloudy with Mist and Fog 55 13 54 12 94 94 E 8 13 30.18 1022 5 8 0.00 0.00
5:34 am 05:34 Partly Cloudy with Mist and Fog 55 12.8 54 12.2 96 96 E 8 13 30.21 1023 3 4 0.00 0.00
5:36 am 05:36 Mostly Cloudy with Mist and Fog 55 13 54 12 94 94 E 8 13 30.18 1022 2 3 0.00 0.00
5:39 am 05:39 Mostly Cloudy with Mist and Fog 55 12.8 54 12.2 96 96 ESE 7 11 30.21 1023 1 1 0.00 0.00
5:47 am 05:47 Mostly Cloudy with Fog 55 13 54 12 94 94 E 8 13 30.18 1022 0 0 0.00 0.00
5:53 am 05:53 Mostly Cloudy with Fog 55 12.8 54 12.2 96 96 E 8 13 30.18 1022 0 0 0.00 0.00
6:53 am 06:53 Mostly Cloudy with Fog 55 12.8 54 12.2 96 96 ESE 6 9 30.19 1022 1 1 0.00 0.00
7:04 am 07:04 Cloudy with Mist and Fog 54 12 54 12 100 100 ESE 6 9 30.21 1023 2 2 0.00 0.00
7:13 am 07:13 Mostly Cloudy with Mist and Fog 53 11.7 52 11.1 96 96 ESE 7 11 30.21 1023 1 1 0.00 0.00
7:21 am 07:21 Mostly Cloudy with Mist and Fog 54 12 52 11 94 94 ESE 7 11 30.21 1023 1 1 0.00 0.00
7:35 am 07:35 Mostly Cloudy with Fog 54 12.2 53 11.7 97 97 ESE 6 9 30.24 1024 0 0 0.00 0.00
7:48 am 07:48 Mostly Cloudy with Fog 54 12 54 12 100 100 ESE 6 9 30.24 1024 0 0 0.00 0.00
7:53 am 07:53 Mostly Cloudy with Fog 54 12.2 53 11.7 97 97 ESE 6 9 30.22 1023 0 0 0.00 0.00
8:06 am 08:06 Mostly Cloudy with Fog 55 13 54 12 94 94 ESE 7 11 30.24 1024 5 8 0.00 0.00
8:53 am 08:53 Mostly Cloudy with Fog 58 14.4 57 13.9 97 97 ESE 5 7 30.22 1023 0 0 0.00 0.00
9:44 am 09:44 Mostly Cloudy with Mist and Fog 60 15.6 58 14.4 93 93 E 3 6 30.21 1023 1 2 0.00 0.00
9:48 am 09:48 Cloudy with Mist and Fog 61 16 59 15 94 94 Calm 30.21 1023 2 3 0.00 0.00
9:53 am 09:53 Cloudy with Mist and Fog 61 16.1 59 15 93 93 Calm 30.22 1023 4 6 0.00 0.00
10:08 am 10:08 Partly Cloudy 64 17.8 60 15.6 87 87 SE 5 7 30.18 1022 10 16 0.00 0.00
10:53 am 10:53 Sunny 72 22.2 59 15 64 64 SE 9 15 30.20 1023 10 16 0.00 0.00
11:53 am 11:53 Sunny 77 25 55 12.8 47 47 SSE 12 19 30.18 1022 10 16 0.00 0.00
12:53 pm 12:53 Sunny 80 26.7 53 11.7 39 39 SSE 9 15 30.16 1021 10 16 0.00 0.00
1:53 pm 13:53 Sunny 82 27.8 49 9.4 32 32 ESE 12 19 30.13 1020 10 16 0.00 0.00
2:53 pm 14:53 Sunny 84 28.9 47 8.3 27 27 SSE 9 15 30.11 1020 10 16 0.00 0.00
3:53 pm 15:53 Sunny 84 28.9 46 7.8 27 27 S 15 24 30.09 1019 10 16 0.00 0.00
4:53 pm 16:53 Sunny 83 28.3 47 8.3 28 28 SE 10 17 30.08 1019 10 16 0.00 0.00
5:53 pm 17:53 Sunny 82 27.8 50 10 33 33 SSE 14 22 30.08 1019 10 16 0.00 0.00
6:53 pm 18:53 Sunny 79 26.1 49 9.4 35 35 SSE 13 20 30.07 1018 10 16 0.00 0.00
7:53 pm 19:53 Sunny 73 22.8 49 9.4 43 43 SE 7 11 30.09 1019 10 16 0.00 0.00
8:53 pm 20:53 Clear 62 16.7 52 11.1 70 70 ESE 8 13 30.11 1020 10 16 0.00 0.00
9:53 pm 21:53 Clear 60 15.6 54 12.2 80 80 ESE 9 15 30.12 1020 10 16 0.00 0.00
10:53 pm 22:53 Clear 63 17.2 53 11.7 70 70 SE 9 15 30.11 1020 10 16 0.00 0.00
11:53 pm 23:53 Clear 62 16.7 54 12.2 75 75 SE 9 15 30.11 1020 10 16 0.00 0.00

Powered by AerisWeather